Location: Étavigny
(49.1201°N, 2.9800°E)
Time: 16:21:44
(UTC+00:00)

ATLAS 5 CENTAUR R/B - Pass Details

Date: 28 January 2023
Orbit: 460 x 1178 km, 63.3° (Epoch: 24 March)

Event Time Altitude Azimuth Distance (km) Brightness Sun altitude
Rises 18:57:19 0° 279° (W) 2,602 6.2 -22.7°
Reaches altitude 10° 19:00:00 10° 302° (WNW) 1,802 4.7 -23.2°
Maximum altitude 19:02:40 17° 344° (NNW) 1,507 3.7 -23.6°
Enters shadow 19:03:47 16° 2° (N) 1,615 3.6 -23.8°
